QPF
0.00 0.00 0.00 0.00 0.00 0.00 0.00 0.00 0.00 0.00 0.00 0.00 0.00 0.00 0.00 0.00 0.00 0.00 0.00 0.00 0.00 0.00 0.00 0.00 0.00 0.01 0.01 0.01 0.01 0.01 0.01 0.00 0.01 0.01 0.01 0.01 0.01 0.00 0.00 0.00 0.00 0.00 0.00 0.00 0.00 0.00 0.00 0.00 0.00
0.00 0.00 0.00 0.00 0.00 0.00 0.00 0.00 0.00 0.00 0.00 0.00 0.00 0.00 0.00 0.00 0.00 0.00 0.00 0.00 0.00 0.00 0.00 0.00 0.00 0.01 0.01 0.01 0.01 0.01 0.01 0.01 0.00 0.01 0.01 0.01 0.01 0.00 0.00 0.00 0.00 0.00 0.00 0.00 0.00 0.00 0.00 0.00 0.00
0.00 0.00 0.00 0.00 0.00 0.00 0.00 0.00 0.00 0.00 0.00 0.00 0.00 0.00 0.00 0.00 0.00 0.00 0.00 0.00 0.00 0.00 0.00 0.00 0.00 0.01 0.01 0.01 0.01 0.00 0.01 0.01 0.00 0.00 0.00 0.01 0.00 0.00 0.00 0.00 0.00 0.00 0.00 0.00 0.00 0.00 0.00 0.00 0.00
0.00 0.00 0.00 0.00 0.00 0.00 0.00 0.00 0.00 0.00 0.00 0.00 0.00 0.00 0.00 0.00 0.00 0.00 0.00 0.00 0.00 0.00 0.00 0.00 0.00 0.01 0.01 0.01 0.01 0.01 0.00 0.01 0.01 0.00 0.00 0.00 0.00 0.00 0.00 0.00 0.00 0.00 0.00 0.00 0.00 0.00 0.00 0.00 0.00
0.00 0.00 0.00 0.00 0.00 0.00 0.00 0.00 0.00 0.00 0.00 0.00 0.00 0.00 0.00 0.00 0.00 0.00 0.00 0.00 0.00 0.00 0.00 0.00 0.01 0.01 0.01 0.01 0.01 0.01 0.00 0.01 0.01 0.01 0.00 0.00 0.00 0.00 0.00 0.00 0.00 0.00 0.00 0.00 0.00 0.00 0.00 0.00 0.00
0.00 0.00 0.00 0.00 0.00 0.00 0.00 0.00 0.00 0.00 0.00 0.00 0.00 0.00 0.00 0.00 0.00 0.00 0.00 0.00 0.00 0.00 0.00 0.00 0.01 0.01 0.01 0.01 0.01 0.01 0.01 0.01 0.01 0.01 0.01 0.00 0.00 0.00 0.00 0.00 0.00 0.00 0.00 0.00 0.00 0.00 0.00 0.00 0.00
0.00 0.00 0.00 0.00 0.00 0.00 0.00 0.00 0.00 0.00 0.00 0.00 0.00 0.00 0.00 0.00 0.00 0.00 0.00 0.00 0.00 0.00 0.00 0.00 0.01 0.01 0.01 0.01 0.01 0.01 0.01 0.01 0.01 0.01 0.01 0.01 0.00 0.00 0.00 0.00 0.00 0.00 0.00 0.00 0.00 0.00 0.00 0.00 0.00
0.00 0.00 0.00 0.00 0.00 0.00 0.00 0.00 0.00 0.00 0.00 0.00 0.00 0.00 0.00 0.00 0.00 0.00 0.00 0.00 0.00 0.00 0.00 0.00 0.01 0.01 0.01 0.01 0.01 0.01 0.01 0.01 0.01 0.01 0.01 0.01 0.00 0.00 0.00 0.00 0.00 0.00 0.00 0.00 0.00 0.00 0.00 0.00 0.00
0.00 0.00 0.00 0.00 0.00 0.00 0.00 0.00 0.00 0.00 0.00 0.00 0.00 0.00 0.00 0.00 0.00 0.00 0.00 0.00 0.00 0.00 0.00 0.00 0.01 0.01 0.01 0.01 0.01 0.01 0.01 0.01 0.01 0.01 0.01 0.01 0.00 0.00 0.00 0.00 0.00 0.00 0.00 0.00 0.00 0.00 0.00 0.00 0.00
0.00 0.00 0.00 0.00 0.00 0.00 0.00 0.00 0.00 0.00 0.00 0.00 0.00 0.00 0.00 0.00 0.00 0.00 0.00 0.00 0.00 0.00 0.00 0.00 0.01 0.01 0.01 0.01 0.01 0.01 0.01 0.01 0.01 0.01 0.00 0.00 0.00 0.00 0.00 0.00 0.00 0.00 0.00 0.00 0.00 0.00 0.00 0.00 0.00
0.00 0.00 0.00 0.00 0.00 0.00 0.00 0.00 0.00 0.00 0.00 0.00 0.00 0.00 0.00 0.00 0.00 0.00 0.00 0.00 0.00 0.00 0.00 0.00 0.01 0.01 0.01 0.00 0.01 0.01 0.01 0.01 0.01 0.00 0.00 0.00 0.00 0.00 0.00 0.00 0.00 0.00 0.00 0.00 0.00 0.00 0.00 0.00 0.00
0.00 0.00 0.00 0.00 0.00 0.00 0.00 0.00 0.00 0.00 0.00 0.00 0.00 0.00 0.00 0.00 0.00 0.00 0.00 0.00 0.00 0.00 0.00 0.00 0.01 0.01 0.01 0.00 0.00 0.01 0.01 0.01 0.01 0.00 0.00 0.00 0.00 0.00 0.00 0.00 0.00 0.00 0.00 0.00 0.00 0.00 0.00 0.00 0.00
0.00 0.00 0.00 0.00 0.00 0.00 0.00 0.00 0.00 0.00 0.00 0.00 0.00 0.00 0.00 0.00 0.00 0.00 0.00 0.00 0.00 0.00 0.00 0.00 0.00 0.01 0.01 0.00 0.00 0.01 0.01 0.01 0.01 0.01 0.00 0.00 0.00 0.00 0.00 0.00 0.00 0.00 0.00 0.00 0.00 0.00 0.00 0.00 0.00
0.00 0.00 0.00 0.00 0.00 0.00 0.00 0.00 0.00 0.00 0.00 0.00 0.00 0.00 0.00 0.00 0.00 0.00 0.00 0.00 0.00 0.00 0.00 0.00 0.00 0.00 0.01 0.01 0.00 0.01 0.01 0.01 0.01 0.01 0.01 0.00 0.00 0.00 0.00 0.00 0.00 0.00 0.00 0.00 0.00 0.00 0.00 0.00 0.00
0.00 0.00 0.00 0.00 0.00 0.00 0.00 0.00 0.00 0.00 0.00 0.00 0.00 0.00 0.00 0.00 0.00 0.00 0.00 0.00 0.00 0.00 0.00 0.00 0.00 0.00 0.00 0.01 0.01 0.01 0.01 0.01 0.01 0.01 0.00 0.00 0.00 0.00 0.00 0.00 0.00 0.00 0.00 0.00 0.00 0.00 0.00 0.00 0.00
0.00 0.00 0.00 0.00 0.00 0.00 0.00 0.00 0.00 0.00 0.00 0.00 0.00 0.00 0.00 0.00 0.00 0.00 0.00 0.00 0.00 0.00 0.00 0.00 0.00 0.00 0.00 0.01 0.01 0.01 0.01 0.01 0.01 0.01 0.01 0.01 0.00 0.00 0.00 0.00 0.00 0.00 0.00 0.00 0.00 0.00 0.00 0.00 0.00
0.00 0.00 0.00 0.00 0.00 0.00 0.00 0.00 0.00 0.00 0.00 0.00 0.00 0.00 0.00 0.00 0.00 0.00 0.00 0.00 0.00 0.00 0.00 0.00 0.00 0.00 0.00 0.00 0.01 0.01 0.01 0.01 0.01 0.01 0.01 0.01 0.01 0.00 0.00 0.01 0.01 0.01 0.00 0.00 0.00 0.00 0.00 0.00 0.00
0.00 0.00 0.00 0.00 0.00 0.00 0.00 0.00 0.00 0.00 0.00 0.00 0.00 0.00 0.00 0.00 0.00 0.00 0.00 0.00 0.00 0.00 0.00 0.00 0.00 0.00 0.00 0.00 0.01 0.01 0.01 0.01 0.01 0.01 0.01 0.01 0.01 0.01 0.01 0.01 0.01 0.00 0.00 0.00 0.01 0.01 0.01 0.01 0.01
0.00 0.00 0.00 0.00 0.00 0.00 0.00 0.00 0.00 0.00 0.00 0.00 0.00 0.00 0.00 0.00 0.00 0.00 0.00 0.00 0.00 0.00 0.00 0.00 0.00 0.00 0.00 0.00 0.01 0.01 0.01 0.01 0.00 0.01 0.00 0.00 0.00 0.00 0.01 0.01 0.01 0.01 0.01 0.01 0.01 0.01 0.01 0.00 0.00
0.00 0.00 0.00 0.00 0.00 0.00 0.00 0.00 0.00 0.00 0.00 0.00 0.00 0.00 0.00 0.00 0.00 0.00 0.00 0.00 0.00 0.00 0.00 0.00 0.00 0.00 0.00 0.00 0.00 0.00 0.00 0.00 0.00 0.00 0.00 0.00 0.00 0.00 0.00 0.00 0.01 0.00 0.00 0.00 0.00 0.00 0.00 0.00 0.00
0.00 0.00 0.00 0.00 0.00 0.00 0.00 0.00 0.00 0.00 0.00 0.00 0.00 0.00 0.00 0.00 0.00 0.00 0.00 0.00 0.00 0.00 0.00 0.00 0.00 0.00 0.00 0.00 0.00 0.00 0.00 0.00 0.00 0.00 0.00 0.00 0.00 0.00 0.00 0.00 0.00 0.00 0.00 0.00 0.00 0.00 0.00 0.00 0.00
0.00 0.00 0.00 0.00 0.00 0.00 0.00 0.00 0.00 0.00 0.00 0.00 0.00 0.00 0.00 0.00 0.00 0.00 0.00 0.00 0.00 0.00 0.00 0.00 0.00 0.00 0.00 0.00 0.00 0.00 0.00 0.00 0.00 0.00 0.00 0.00 0.00 0.00 0.00 0.00 0.00 0.00 0.00 0.00 0.00 0.00 0.00 0.00 0.00
0.00 0.00 0.00 0.00 0.00 0.00 0.00 0.00 0.00 0.00 0.00 0.00 0.00 0.00 0.00 0.00 0.00 0.00 0.00 0.00 0.00 0.00 0.00 0.00 0.00 0.00 0.00 0.00 0.00 0.00 0.00 0.00 0.00 0.00 0.00 0.00 0.00 0.00 0.00 0.00 0.00 0.00 0.00 0.00 0.00 0.00 0.00 0.00 0.00
0.00 0.00 0.00 0.00 0.00 0.00 0.00 0.00 0.00 0.00 0.00 0.00 0.00 0.00 0.00 0.00 0.00 0.00 0.00 0.00 0.00 0.00 0.00 0.00 0.00 0.00 0.00 0.00 0.00 0.00 0.00 0.00 0.00 0.00 0.00 0.00 0.00 0.00 0.00 0.00 0.00 0.00 0.00 0.00 0.00 0.00 0.00 0.00 0.00
0.00 0.00 0.00 0.00 0.00 0.00 0.00 0.00 0.00 0.00 0.00 0.00 0.00 0.00 0.00 0.00 0.00 0.00 0.00 0.00 0.00 0.00 0.00 0.00 0.00 0.00 0.00 0.00 0.00 0.00 0.00 0.00 0.00 0.00 0.00 0.00 0.00 0.00 0.00 0.00 0.00 0.00 0.00 0.00 0.00 0.00 0.00 0.00 0.00
0.00 0.00 0.00 0.00 0.00 0.00 0.00 0.00 0.00 0.00 0.00 0.00 0.00 0.00 0.00 0.00 0.00 0.00 0.00 0.00 0.00 0.00 0.00 0.00 0.00 0.00 0.00 0.00 0.00 0.00 0.00 0.00 0.00 0.00 0.00 0.00 0.00 0.00 0.00 0.00 0.00 0.00 0.00 0.00 0.00 0.00 0.00 0.00 0.00
0.00 0.00 0.00 0.00 0.00 0.00 0.00 0.00 0.00 0.00 0.00 0.00 0.00 0.00 0.00 0.00 0.00 0.00 0.00 0.00 0.00 0.00 0.00 0.00 0.00 0.00 0.00 0.00 0.00 0.00 0.00 0.00 0.00 0.00 0.00 0.00 0.00 0.00 0.00 0.00 0.00 0.00 0.00 0.00 0.00 0.00 0.00 0.00 0.00
0.00 0.00 0.00 0.00 0.00 0.00 0.00 0.00 0.00 0.00 0.00 0.00 0.00 0.00 0.00 0.00 0.00 0.00 0.00 0.00 0.00 0.00 0.00 0.00 0.00 0.00 0.00 0.00 0.00 0.00 0.00 0.00 0.00 0.00 0.00 0.00 0.00 0.00 0.00 0.00 0.00 0.00 0.00 0.00 0.00 0.00 0.00 0.00 0.00
0.00 0.00 0.00 0.00 0.00 0.00 0.00 0.00 0.00 0.00 0.00 0.00 0.00 0.00 0.00 0.00 0.00 0.00 0.00 0.00 0.00 0.00 0.00 0.00 0.00 0.00 0.00 0.00 0.00 0.00 0.00 0.00 0.00 0.00 0.00 0.00 0.00 0.00 0.00 0.00 0.00 0.00 0.00 0.00 0.00 0.00 0.00 0.00 0.00
0.00 0.00 0.00 0.00 0.00 0.00 0.00 0.00 0.00 0.00 0.00 0.00 0.00 0.00 0.00 0.00 0.00 0.00 0.00 0.00 0.00 0.00 0.00 0.00 0.00 0.00 0.00 0.00 0.00 0.00 0.00 0.00 0.00 0.00 0.00 0.00 0.00 0.00 0.00 0.00 0.00 0.00 0.00 0.00 0.00 0.00 0.00 0.00 0.00
MSLP
1013.78 1014.61 1015.62 1016.70 1017.69 1018.48 1018.99 1019.20 1019.13 1018.87 1018.51 1018.16 1017.89 1017.72 1017.64 1017.63 1017.63 1017.59 1017.49 1017.35 1017.19 1017.09 1017.08 1017.20 1017.46 1017.84 1018.29 1018.76 1019.19 1019.55 1019.84 1020.06 1020.25 1020.43 1020.63 1020.86 1021.12 1021.38 1021.62 1021.81 1021.95 1022.01 1022.02 1021.99 1021.95 1021.90 1021.87 1021.86 1021.86
1014.20 1015.18 1016.28 1017.38 1018.30 1018.95 1019.26 1019.22 1018.90 1018.40 1017.85 1017.36 1017.00 1016.81 1016.76 1016.81 1016.89 1016.94 1016.94 1016.89 1016.83 1016.81 1016.88 1017.08 1017.42 1017.86 1018.37 1018.89 1019.36 1019.76 1020.08 1020.32 1020.52 1020.72 1020.94 1021.19 1021.46 1021.74 1021.99 1022.19 1022.33 1022.40 1022.42 1022.39 1022.35 1022.31 1022.27 1022.26 1022.27
1014.73 1015.80 1016.93 1017.97 1018.78 1019.25 1019.34 1019.07 1018.54 1017.87 1017.19 1016.62 1016.23 1016.06 1016.06 1016.17 1016.33 1016.47 1016.55 1016.59 1016.61 1016.66 1016.81 1017.07 1017.46 1017.95 1018.50 1019.04 1019.54 1019.95 1020.28 1020.54 1020.76 1020.97 1021.20 1021.46 1021.73 1022.01 1022.26 1022.46 1022.59 1022.67 1022.69 1022.68 1022.66 1022.63 1022.62 1022.63 1022.65
1015.34 1016.44 1017.53 1018.47 1019.11 1019.39 1019.28 1018.83 1018.15 1017.36 1016.62 1016.04 1015.68 1015.55 1015.61 1015.79 1016.02 1016.23 1016.38 1016.48 1016.56 1016.68 1016.87 1017.18 1017.60 1018.10 1018.65 1019.19 1019.67 1020.08 1020.41 1020.67 1020.90 1021.13 1021.37 1021.64 1021.92 1022.19 1022.44 1022.63 1022.77 1022.85 1022.89 1022.90 1022.90 1022.91 1022.93 1022.97 1023.02
1015.99 1017.06 1018.06 1018.84 1019.31 1019.40 1019.12 1018.54 1017.77 1016.96 1016.23 1015.70 1015.40 1015.33 1015.46 1015.69 1015.97 1016.22 1016.41 1016.55 1016.67 1016.83 1017.05 1017.38 1017.79 1018.28 1018.80 1019.30 1019.75 1020.13 1020.44 1020.71 1020.95 1021.20 1021.46 1021.75 1022.04 1022.32 1022.57 1022.77 1022.91 1023.00 1023.06 1023.10 1023.14 1023.18 1023.24 1023.31 1023.39
1016.60 1017.59 1018.46 1019.08 1019.37 1019.29 1018.90 1018.25 1017.47 1016.69 1016.04 1015.59 1015.38 1015.38 1015.56 1015.83 1016.12 1016.38 1016.59 1016.75 1016.89 1017.07 1017.30 1017.62 1018.02 1018.47 1018.93 1019.37 1019.76 1020.10 1020.39 1020.65 1020.91 1021.19 1021.50 1021.82 1022.14 1022.45 1022.71 1022.91 1023.06 1023.17 1023.24 1023.31 1023.38 1023.46 1023.55 1023.65 1023.75
1017.10 1017.99 1018.70 1019.15 1019.27 1019.08 1018.61 1017.96 1017.23 1016.54 1016.00 1015.67 1015.55 1015.62 1015.83 1016.10 1016.38 1016.62 1016.82 1016.97 1017.12 1017.31 1017.55 1017.86 1018.22 1018.62 1019.02 1019.39 1019.72 1020.01 1020.27 1020.54 1020.83 1021.15 1021.51 1021.88 1022.25 1022.58 1022.86 1023.08 1023.23 1023.35 1023.44 1023.53 1023.62 1023.73 1023.84 1023.96 1024.06
1017.43 1018.19 1018.75 1019.04 1019.04 1018.76 1018.27 1017.66 1017.02 1016.46 1016.06 1015.84 1015.80 1015.92 1016.13 1016.39 1016.63 1016.83 1016.99 1017.13 1017.28 1017.48 1017.72 1018.03 1018.37 1018.73 1019.07 1019.38 1019.65 1019.90 1020.15 1020.42 1020.74 1021.11 1021.53 1021.96 1022.37 1022.73 1023.03 1023.25 1023.41 1023.53 1023.62 1023.72 1023.82 1023.94 1024.07 1024.19 1024.29
1017.58 1018.21 1018.62 1018.77 1018.67 1018.35 1017.88 1017.34 1016.82 1016.40 1016.12 1016.01 1016.04 1016.17 1016.37 1016.57 1016.75 1016.90 1017.02 1017.15 1017.31 1017.51 1017.78 1018.10 1018.44 1018.78 1019.09 1019.36 1019.59 1019.81 1020.05 1020.34 1020.69 1021.10 1021.56 1022.03 1022.48 1022.87 1023.18 1023.40 1023.55 1023.65 1023.74 1023.83 1023.93 1024.06 1024.19 1024.30 1024.40
1017.57 1018.07 1018.35 1018.39 1018.23 1017.89 1017.46 1017.00 1016.60 1016.30 1016.14 1016.10 1016.17 1016.31 1016.47 1016.61 1016.72 1016.81 1016.89 1017.00 1017.17 1017.40 1017.70 1018.05 1018.41 1018.76 1019.06 1019.32 1019.54 1019.75 1019.99 1020.29 1020.66 1021.10 1021.59 1022.09 1022.55 1022.95 1023.25 1023.46 1023.59 1023.67 1023.74 1023.82 1023.91 1024.04 1024.17 1024.28 1024.37
1017.47 1017.86 1018.03 1017.99 1017.77 1017.43 1017.04 1016.66 1016.36 1016.16 1016.08 1016.10 1016.18 1016.30 1016.41 1016.49 1016.54 1016.57 1016.62 1016.72 1016.89 1017.16 1017.49 1017.88 1018.28 1018.66 1018.99 1019.26 1019.49 1019.71 1019.96 1020.26 1020.64 1021.09 1021.59 1022.08 1022.54 1022.92 1023.21 1023.39 1023.49 1023.55 1023.60 1023.67 1023.76 1023.88 1024.01 1024.13 1024.21
1017.37 1017.66 1017.74 1017.63 1017.38 1017.04 1016.69 1016.36 1016.13 1015.99 1015.96 1016.00 1016.08 1016.17 1016.24 1016.26 1016.26 1016.24 1016.26 1016.35 1016.53 1016.82 1017.19 1017.62 1018.07 1018.49 1018.86 1019.16 1019.43 1019.67 1019.93 1020.24 1020.62 1021.05 1021.52 1022.00 1022.42 1022.77 1023.03 1023.19 1023.27 1023.31 1023.35 1023.40 1023.49 1023.61 1023.75 1023.87 1023.95
1017.37 1017.58 1017.58 1017.42 1017.14 1016.80 1016.45 1016.16 1015.95 1015.83 1015.81 1015.85 1015.92 1015.99 1016.02 1016.00 1015.96 1015.92 1015.91 1015.98 1016.16 1016.44 1016.83 1017.29 1017.77 1018.24 1018.66 1019.02 1019.33 1019.60 1019.88 1020.20 1020.56 1020.96 1021.39 1021.82 1022.20 1022.51 1022.74 1022.87 1022.94 1022.98 1023.01 1023.07 1023.16 1023.29 1023.43 1023.56 1023.64
1017.53 1017.67 1017.62 1017.42 1017.11 1016.75 1016.39 1016.08 1015.85 1015.72 1015.68 1015.70 1015.75 1015.80 1015.81 1015.79 1015.74 1015.68 1015.65 1015.70 1015.84 1016.10 1016.47 1016.93 1017.43 1017.93 1018.40 1018.82 1019.18 1019.50 1019.81 1020.12 1020.46 1020.83 1021.21 1021.58 1021.91 1022.18 1022.38 1022.51 1022.58 1022.62 1022.67 1022.74 1022.84 1022.98 1023.12 1023.25 1023.34
1017.86 1017.95 1017.86 1017.63 1017.29 1016.90 1016.50 1016.14 1015.86 1015.68 1015.59 1015.57 1015.60 1015.64 1015.67 1015.66 1015.62 1015.57 1015.53 1015.54 1015.64 1015.85 1016.17 1016.59 1017.08 1017.59 1018.10 1018.58 1019.00 1019.38 1019.72 1020.04 1020.36 1020.69 1021.01 1021.33 1021.62 1021.85 1022.04 1022.17 1022.25 1022.32 1022.39 1022.48 1022.60 1022.73 1022.88 1023.00 1023.07
1018.30 1018.36 1018.25 1018.00 1017.63 1017.21 1016.76 1016.33 1015.97 1015.70 1015.53 1015.46 1015.47 1015.53 1015.58 1015.62 1015.62 1015.59 1015.55 1015.53 1015.57 1015.70 1015.95 1016.31 1016.76 1017.28 1017.82 1018.34 1018.83 1019.26 1019.64 1019.98 1020.29 1020.58 1020.86 1021.13 1021.37 1021.59 1021.77 1021.91 1022.03 1022.13 1022.22 1022.33 1022.45 1022.59 1022.72 1022.82 1022.87
1018.75 1018.81 1018.70 1018.45 1018.09 1017.62 1017.11 1016.59 1016.12 1015.74 1015.48 1015.35 1015.34 1015.41 1015.52 1015.63 1015.70 1015.71 1015.69 1015.65 1015.63 1015.69 1015.85 1016.13 1016.54 1017.03 1017.59 1018.15 1018.70 1019.19 1019.62 1019.98 1020.29 1020.55 1020.80 1021.02 1021.24 1021.44 1021.62 1021.78 1021.92 1022.05 1022.17 1022.30 1022.42 1022.54 1022.64 1022.72 1022.75
1019.12 1019.19 1019.12 1018.91 1018.56 1018.07 1017.50 1016.88 1016.29 1015.78 1015.41 1015.20 1015.16 1015.25 1015.42 1015.62 1015.78 1015.87 1015.89 1015.86 1015.81 1015.79 1015.87 1016.08 1016.42 1016.89 1017.45 1018.06 1018.66 1019.21 1019.68 1020.07 1020.38 1020.63 1020.84 1021.03 1021.22 1021.41 1021.59 1021.77 1021.93 1022.09 1022.22 1022.35 1022.46 1022.55 1022.63 1022.68 1022.68
1019.31 1019.44 1019.44 1019.29 1018.98 1018.49 1017.87 1017.15 1016.42 1015.77 1015.27 1014.98 1014.89 1015.00 1015.24 1015.53 1015.81 1016.01 1016.11 1016.11 1016.05 1016.00 1016.01 1016.15 1016.44 1016.88 1017.44 1018.07 1018.71 1019.31 1019.83 1020.24 1020.56 1020.80 1020.98 1021.14 1021.30 1021.47 1021.65 1021.84 1022.02 1022.19 1022.33 1022.44 1022.54 1022.61 1022.66 1022.68 1022.67
1019.28 1019.50 1019.61 1019.56 1019.31 1018.85 1018.18 1017.37 1016.51 1015.71 1015.07 1014.66 1014.52 1014.63 1014.93 1015.33 1015.74 1016.07 1016.27 1016.35 1016.32 1016.26 1016.24 1016.33 1016.58 1016.99 1017.54 1018.18 1018.85 1019.49 1020.04 1020.47 1020.79 1021.02 1021.18 1021.31 1021.44 1021.59 1021.77 1021.95 1022.14 1022.30 1022.44 1022.54 1022.61 1022.66 1022.68 1022.69 1022.68
1019.06 1019.40 1019.64 1019.72 1019.56 1019.13 1018.44 1017.55 1016.55 1015.60 1014.81 1014.28 1014.07 1014.17 1014.52 1015.02 1015.56 1016.03 1016.36 1016.54 1016.58 1016.55 1016.53 1016.59 1016.81 1017.19 1017.73 1018.37 1019.05 1019.70 1020.26 1020.70 1021.02 1021.23 1021.37 1021.48 1021.59 1021.72 1021.88 1022.06 1022.23 1022.39 1022.51 1022.60 1022.65 1022.68 1022.69 1022.70 1022.70
1018.72 1019.19 1019.58 1019.80 1019.75 1019.36 1018.66 1017.69 1016.58 1015.47 1014.53 1013.87 1013.58 1013.65 1014.03 1014.61 1015.27 1015.89 1016.36 1016.66 1016.80 1016.83 1016.83 1016.89 1017.08 1017.43 1017.94 1018.56 1019.23 1019.88 1020.44 1020.89 1021.20 1021.40 1021.52 1021.61 1021.70 1021.82 1021.96 1022.13 1022.29 1022.44 1022.55 1022.62 1022.66 1022.67 1022.68 1022.70 1022.73
1018.35 1018.95 1019.50 1019.85 1019.89 1019.56 1018.85 1017.82 1016.60 1015.36 1014.27 1013.49 1013.11 1013.13 1013.52 1014.17 1014.93 1015.67 1016.28 1016.71 1016.95 1017.05 1017.09 1017.16 1017.34 1017.66 1018.14 1018.73 1019.37 1020.00 1020.55 1020.99 1021.29 1021.49 1021.60 1021.69 1021.77 1021.87 1022.01 1022.16 1022.32 1022.46 1022.55 1022.61 1022.64 1022.64 1022.66 1022.69 1022.75
1018.02 1018.75 1019.42 1019.89 1020.02 1019.74 1019.02 1017.95 1016.64 1015.28 1014.07 1013.17 1012.69 1012.67 1013.04 1013.72 1014.56 1015.40 1016.13 1016.67 1017.01 1017.19 1017.28 1017.37 1017.54 1017.83 1018.27 1018.82 1019.43 1020.03 1020.56 1020.99 1021.30 1021.50 1021.62 1021.71 1021.79 1021.90 1022.03 1022.19 1022.34 1022.46 1022.55 1022.59 1022.60 1022.60 1022.62 1022.66 1022.73
1017.77 1018.60 1019.36 1019.91 1020.11 1019.86 1019.14 1018.03 1016.66 1015.22 1013.92 1012.93 1012.37 1012.28 1012.63 1013.32 1014.19 1015.10 1015.91 1016.55 1016.98 1017.23 1017.36 1017.48 1017.65 1017.92 1018.33 1018.84 1019.41 1019.99 1020.51 1020.93 1021.24 1021.46 1021.60 1021.70 1021.80 1021.92 1022.06 1022.21 1022.36 1022.47 1022.55 1022.57 1022.57 1022.55 1022.55 1022.59 1022.67
1017.59 1018.47 1019.29 1019.88 1020.11 1019.87 1019.16 1018.03 1016.64 1015.16 1013.80 1012.75 1012.13 1011.98 1012.29 1012.95 1013.83 1014.77 1015.63 1016.32 1016.82 1017.13 1017.32 1017.47 1017.65 1017.92 1018.31 1018.79 1019.34 1019.90 1020.41 1020.84 1021.17 1021.40 1021.57 1021.70 1021.82 1021.95 1022.10 1022.26 1022.39 1022.49 1022.55 1022.55 1022.53 1022.49 1022.46 1022.47 1022.53
1017.42 1018.32 1019.14 1019.73 1019.95 1019.71 1019.01 1017.89 1016.50 1015.02 1013.66 1012.59 1011.93 1011.74 1012.00 1012.62 1013.47 1014.39 1015.27 1015.99 1016.53 1016.90 1017.15 1017.34 1017.55 1017.84 1018.23 1018.72 1019.26 1019.81 1020.33 1020.76 1021.11 1021.37 1021.57 1021.72 1021.86 1022.00 1022.15 1022.30 1022.42 1022.50 1022.53 1022.51 1022.45 1022.37 1022.31 1022.28 1022.30
1017.19 1018.06 1018.84 1019.39 1019.57 1019.32 1018.63 1017.55 1016.20 1014.77 1013.45 1012.39 1011.73 1011.51 1011.72 1012.28 1013.07 1013.95 1014.80 1015.54 1016.11 1016.53 1016.84 1017.10 1017.37 1017.71 1018.13 1018.63 1019.19 1019.75 1020.28 1020.73 1021.10 1021.38 1021.59 1021.75 1021.90 1022.04 1022.18 1022.31 1022.41 1022.46 1022.46 1022.40 1022.31 1022.19 1022.08 1022.00 1021.97
1016.84 1017.64 1018.34 1018.80 1018.93 1018.66 1017.99 1016.96 1015.70 1014.36 1013.11 1012.12 1011.48 1011.24 1011.40 1011.89 1012.61 1013.43 1014.24 1014.96 1015.56 1016.03 1016.42 1016.76 1017.11 1017.52 1018.01 1018.56 1019.15 1019.73 1020.27 1020.73 1021.11 1021.39 1021.60 1021.76 1021.90 1022.02 1022.13 1022.23 1022.29 1022.31 1022.27 1022.18 1022.05 1021.89 1021.74 1021.62 1021.54
1016.34 1017.04 1017.63 1017.99 1018.05 1017.75 1017.10 1016.15 1015.00 1013.78 1012.66 1011.75 1011.15 1010.92 1011.04 1011.45 1012.08 1012.83 1013.58 1014.29 1014.90 1015.43 1015.90 1016.34 1016.80 1017.31 1017.88 1018.49 1019.11 1019.72 1020.27 1020.74 1021.10 1021.38 1021.57 1021.71 1021.81 1021.90 1021.97 1022.02 1022.04 1022.02 1021.95 1021.83 1021.66 1021.48 1021.30 1021.14 1021.02
Thickness
5747 5747 5746 5737 5714 5692 5695 5706 5712 5717 5721 5730 5732 5726 5720 5719 5716 5717 5731 5731 5731 5728 5723 5720 5716 5712 5709 5707 5704 5701 5699 5697 5694 5692 5691 5689 5688 5686 5685 5684 5683 5682 5682 5681 5680 5680 5679 5679 5679
5746 5746 5739 5722 5697 5684 5695 5709 5713 5721 5729 5732 5731 5728 5726 5727 5733 5731 5729 5729 5730 5727 5722 5718 5714 5710 5707 5704 5701 5698 5695 5693 5691 5688 5686 5684 5683 5681 5679 5678 5677 5676 5675 5675 5674 5673 5673 5672 5672
5746 5744 5727 5708 5694 5690 5704 5716 5719 5728 5734 5732 5728 5729 5729 5730 5733 5733 5733 5730 5728 5724 5720 5716 5712 5708 5705 5701 5698 5695 5692 5689 5687 5684 5682 5680 5678 5676 5674 5672 5671 5670 5669 5668 5668 5667 5667 5666 5666
5742 5732 5719 5703 5701 5705 5713 5722 5725 5728 5732 5733 5729 5726 5730 5733 5733 5734 5733 5729 5726 5722 5718 5714 5710 5706 5702 5699 5695 5692 5689 5686 5683 5680 5678 5675 5673 5671 5669 5667 5666 5664 5663 5662 5661 5661 5660 5660 5659
5735 5721 5706 5696 5704 5712 5718 5724 5727 5726 5728 5730 5728 5724 5727 5732 5733 5733 5731 5728 5724 5719 5715 5712 5708 5704 5700 5696 5692 5689 5685 5682 5679 5676 5674 5671 5668 5666 5664 5662 5660 5659 5658 5657 5656 5655 5654 5653 5653
5720 5710 5693 5692 5703 5712 5720 5725 5727 5725 5726 5729 5726 5723 5728 5732 5731 5730 5728 5725 5722 5717 5713 5709 5705 5701 5697 5693 5689 5686 5682 5679 5676 5673 5670 5667 5664 5661 5659 5657 5655 5653 5652 5651 5650 5649 5648 5647 5647
5713 5702 5695 5699 5700 5709 5721 5725 5725 5724 5724 5727 5727 5722 5727 5730 5728 5727 5724 5721 5717 5713 5710 5706 5703 5698 5694 5690 5686 5682 5679 5676 5672 5669 5666 5663 5660 5657 5654 5652 5650 5648 5646 5645 5644 5643 5642 5641 5641
5716 5703 5697 5696 5700 5709 5720 5725 5726 5725 5725 5729 5728 5722 5724 5728 5724 5722 5718 5715 5712 5709 5706 5703 5700 5696 5692 5687 5683 5679 5676 5672 5669 5665 5662 5658 5655 5652 5650 5647 5645 5643 5641 5640 5638 5637 5636 5636 5635
5716 5694 5689 5698 5702 5710 5720 5721 5725 5728 5725 5726 5726 5726 5726 5723 5720 5717 5712 5709 5707 5705 5703 5700 5697 5693 5689 5685 5680 5676 5672 5668 5665 5661 5657 5654 5651 5648 5645 5642 5640 5638 5636 5635 5633 5632 5631 5630 5629
5704 5687 5697 5708 5711 5713 5717 5718 5721 5721 5719 5720 5723 5725 5722 5719 5717 5715 5711 5707 5705 5703 5700 5698 5695 5691 5686 5681 5677 5673 5669 5665 5661 5657 5654 5650 5646 5643 5640 5638 5635 5633 5632 5630 5629 5627 5626 5625 5624
5704 5695 5702 5709 5713 5714 5713 5715 5719 5716 5711 5716 5719 5722 5718 5715 5714 5713 5711 5708 5706 5703 5699 5696 5692 5688 5683 5679 5674 5670 5665 5661 5657 5653 5650 5646 5642 5639 5636 5633 5631 5629 5627 5625 5623 5622 5620 5619 5618
5699 5700 5704 5708 5713 5711 5710 5713 5712 5712 5715 5723 5723 5722 5716 5713 5712 5712 5710 5707 5703 5700 5698 5694 5689 5685 5680 5676 5671 5667 5662 5658 5653 5649 5646 5642 5638 5634 5632 5629 5627 5624 5622 5620 5618 5616 5615 5613 5612
5694 5697 5703 5706 5706 5707 5708 5706 5708 5712 5718 5719 5719 5717 5713 5711 5711 5711 5709 5705 5701 5698 5696 5692 5687 5683 5678 5673 5668 5663 5659 5655 5650 5646 5642 5639 5635 5631 5628 5625 5623 5620 5618 5616 5614 5612 5610 5608 5607
5692 5693 5695 5697 5699 5701 5700 5702 5702 5711 5715 5714 5713 5711 5709 5708 5708 5706 5704 5702 5699 5697 5694 5690 5685 5680 5675 5670 5665 5660 5656 5651 5647 5643 5639 5635 5632 5628 5625 5622 5619 5617 5614 5612 5609 5607 5605 5604 5602
5687 5684 5685 5691 5693 5696 5695 5693 5699 5710 5709 5707 5706 5705 5705 5704 5703 5703 5702 5701 5698 5695 5692 5688 5683 5678 5672 5667 5662 5657 5652 5648 5644 5640 5636 5632 5629 5625 5621 5618 5615 5613 5610 5607 5604 5602 5600 5598 5597
5675 5668 5667 5680 5686 5689 5686 5682 5700 5705 5702 5700 5700 5699 5699 5700 5700 5700 5699 5698 5696 5693 5690 5686 5681 5675 5669 5664 5658 5653 5649 5644 5640 5636 5632 5628 5625 5621 5617 5614 5611 5608 5605 5602 5599 5597 5595 5593 5592
5654 5650 5656 5666 5678 5679 5676 5677 5693 5697 5695 5694 5694 5694 5694 5695 5696 5696 5695 5695 5694 5691 5688 5682 5677 5672 5666 5660 5654 5649 5644 5639 5636 5632 5628 5624 5621 5617 5613 5609 5606 5603 5600 5597 5594 5592 5589 5587 5586
5642 5644 5648 5653 5666 5668 5665 5670 5686 5691 5688 5688 5688 5688 5688 5689 5691 5692 5691 5690 5689 5686 5683 5678 5673 5667 5661 5654 5648 5643 5637 5633 5630 5626 5623 5619 5616 5612 5608 5605 5601 5598 5594 5591 5588 5585 5583 5581 5579
5644 5641 5640 5647 5657 5657 5657 5665 5681 5687 5684 5683 5683 5683 5684 5685 5686 5685 5684 5683 5681 5679 5676 5672 5667 5661 5656 5649 5643 5637 5631 5627 5623 5620 5617 5613 5610 5606 5602 5599 5595 5592 5588 5585 5582 5579 5576 5573 5571
5637 5633 5633 5641 5650 5649 5649 5658 5675 5680 5683 5686 5686 5684 5683 5680 5679 5678 5677 5675 5674 5671 5669 5666 5661 5656 5651 5646 5640 5634 5628 5622 5618 5614 5610 5607 5604 5600 5596 5592 5589 5585 5581 5578 5574 5571 5567 5564 5562
5628 5627 5630 5632 5639 5643 5641 5651 5667 5678 5681 5684 5684 5684 5681 5679 5675 5672 5669 5667 5665 5663 5661 5659 5655 5650 5645 5640 5633 5626 5620 5615 5610 5606 5603 5599 5596 5593 5590 5585 5581 5577 5574 5569 5566 5563 5559 5555 5551
5621 5630 5629 5628 5623 5619 5628 5624 5658 5668 5673 5679 5679 5676 5675 5674 5670 5666 5663 5660 5657 5655 5653 5651 5647 5643 5639 5634 5629 5623 5616 5609 5604 5599 5595 5591 5588 5585 5582 5578 5573 5569 5565 5561 5557 5554 5550 5546 5541
5625 5631 5625 5623 5617 5611 5617 5613 5645 5659 5665 5676 5676 5672 5670 5668 5664 5661 5658 5655 5651 5647 5645 5643 5639 5635 5631 5627 5623 5617 5610 5603 5596 5592 5587 5583 5580 5577 5573 5569 5565 5561 5557 5552 5548 5544 5540 5536 5532
5624 5617 5610 5601 5600 5598 5612 5605 5625 5650 5663 5671 5675 5669 5666 5661 5657 5654 5650 5646 5642 5638 5636 5634 5631 5626 5623 5619 5615 5610 5603 5596 5589 5584 5579 5575 5571 5568 5564 5560 5556 5552 5548 5544 5539 5535 5531 5527 5523
5616 5603 5589 5590 5585 5592 5608 5604 5624 5657 5663 5665 5668 5667 5661 5655 5650 5646 5642 5638 5634 5631 5628 5626 5624 5618 5614 5611 5607 5602 5597 5591 5585 5578 5573 5567 5563 5559 5555 5551 5547 5543 5539 5535 5530 5526 5521 5517 5513
5607 5604 5589 5584 5583 5589 5600 5599 5632 5657 5660 5661 5662 5662 5656 5650 5646 5643 5639 5634 5630 5626 5622 5619 5616 5611 5607 5603 5598 5594 5589 5583 5578 5572 5566 5561 5556 5551 5547 5542 5538 5534 5530 5526 5521 5516 5512 5508 5503
5600 5597 5601 5586 5583 5581 5591 5605 5629 5656 5657 5657 5656 5654 5649 5646 5642 5638 5633 5629 5624 5621 5617 5614 5610 5605 5600 5595 5590 5585 5580 5576 5570 5564 5559 5553 5548 5543 5539 5534 5529 5525 5521 5516 5512 5507 5503 5499 5494
5606 5599 5584 5580 5574 5575 5586 5598 5617 5642 5650 5650 5649 5647 5644 5640 5636 5632 5628 5624 5619 5615 5611 5607 5603 5599 5593 5588 5583 5578 5573 5568 5562 5556 5550 5545 5540 5535 5530 5525 5520 5515 5511 5507 5502 5498 5493 5489 5484
5594 5592 5590 5580 5576 5572 5576 5598 5627 5635 5642 5641 5643 5642 5638 5635 5633 5629 5624 5619 5614 5609 5604 5600 5596 5591 5586 5581 5576 5570 5564 5559 5553 5548 5542 5536 5531 5526 5521 5516 5511 5506 5502 5497 5492 5488 5483 5479 5475
5599 5595 5588 5579 5574 5569 5570 5595 5634 5634 5634 5635 5637 5638 5635 5632 5629 5624 5619 5613 5608 5603 5599 5594 5590 5585 5580 5574 5568 5562 5556 5550 5544 5539 5533 5528 5522 5517 5512 5507 5501 5497 5492 5488 5483 5478 5474 5469 5465